Location: Banios
(43.0451°N, 0.2335°E)
Time: 13:00:56
(UTC+00:00)

CENTAUR R/B - Pass Details

Date: 25 January 2021
Orbit: 742 x 1446 km, 63.5° (Epoch: 25 February)

Event Time Altitude Azimuth Distance (km) Brightness Sun altitude
Rises 05:03:01 0° 184° (S) 3,312 5.3 -25.1°
Reaches altitude 10° 05:05:30 10° 175° (S) 2,455 4.7 -24.7°
Maximum altitude 05:10:32 33° 112° (ESE) 1,499 4.0 -23.7°
Drops below altitude 10° 05:16:21 10° 51° (NE) 2,859 5.5 -22.7°
Sets 05:19:27 0° 42° (NE) 3,939 6.2 -22.1°
